RYR54YA EIDW-ELLX

Flight info

Callsign RYR54YA
Flight time 1h 28m
Altitude 33000
Route ENDEQ1E ENDEQ Q36 EPOXI L15 FINMA DCT CHT DCT ITVIP DCT KONAN UL607 FERDI DCT REMBA
Aircraft B738/M-SDE2E3FGHIRWXY/LB1

Departure

Time 2026-05-05 05:16
Airport Dublin Airport (EIDW)

Arrival

Time 2026-05-05 06:45
Airport Luxembourg-Findel International Airport (ELLX)
Time Latitude Longitude Altitude Speed Heading
2026-05-05 04:41 53.43119 -6.25111 210 ft 0 kts 185°
2026-05-05 05:08 53.43120 -6.25110 210 ft 2 kts 185°
2026-05-05 05:08 53.43146 -6.25107 214 ft 4 kts 185°
2026-05-05 05:08 53.43173 -6.25102 217 ft 4 kts 185°
2026-05-05 05:09 53.43192 -6.25098 211 ft 4 kts 224°
2026-05-05 05:09 53.43200 -6.25063 210 ft 4 kts 272°
2026-05-05 05:09 53.43198 -6.25023 211 ft 2 kts 276°
2026-05-05 05:09 53.43198 -6.25020 211 ft 0 kts 276°
2026-05-05 05:11 53.43198 -6.25022 211 ft 1 kts 275°
2026-05-05 05:11 53.43201 -6.25065 221 ft 8 kts 276°
2026-05-05 05:12 53.43209 -6.25195 210 ft 15 kts 276°
2026-05-05 05:12 53.43191 -6.25374 211 ft 16 kts 249°
2026-05-05 05:12 53.43164 -6.25549 213 ft 15 kts 253°
2026-05-05 05:12 53.43126 -6.25709 216 ft 15 kts 243°
2026-05-05 05:13 53.43039 -6.25722 211 ft 14 kts 154°
2026-05-05 05:13 53.42951 -6.25656 212 ft 13 kts 156°
2026-05-05 05:13 53.42866 -6.25594 223 ft 15 kts 156°
2026-05-05 05:13 53.42756 -6.25515 214 ft 19 kts 156°
2026-05-05 05:14 53.42618 -6.25414 209 ft 24 kts 156°
2026-05-05 05:14 53.42454 -6.25295 209 ft 26 kts 156°
2026-05-05 05:14 53.42289 -6.25176 213 ft 25 kts 156°
2026-05-05 05:14 53.42138 -6.25068 212 ft 20 kts 156°
2026-05-05 05:15 53.42036 -6.25048 216 ft 11 kts 232°
2026-05-05 05:15 53.42032 -6.25172 211 ft 11 kts 275°
2026-05-05 05:15 53.42046 -6.25425 210 ft 48 kts 275°
2026-05-05 05:15 53.42097 -6.26356 211 ft 110 kts 275°
2026-05-05 05:16 53.42183 -6.27927 259 ft 154 kts 276°
2026-05-05 05:16 53.42260 -6.29748 803 ft 157 kts 276°
2026-05-05 05:16 53.42344 -6.31587 1460 ft 159 kts 276°
2026-05-05 05:16 53.42390 -6.33424 2138 ft 160 kts 276°
2026-05-05 05:17 53.42432 -6.35371 2646 ft 174 kts 276°
2026-05-05 05:17 53.42578 -6.37555 2912 ft 201 kts 280°
2026-05-05 05:17 53.42765 -6.40003 3123 ft 222 kts 279°
2026-05-05 05:17 53.42946 -6.42652 3416 ft 239 kts 279°
2026-05-05 05:18 53.43505 -6.45331 3850 ft 250 kts 308°
2026-05-05 05:18 53.44856 -6.47120 4663 ft 251 kts 337°
2026-05-05 05:18 53.46575 -6.47592 5424 ft 257 kts
2026-05-05 05:18 53.48275 -6.46576 6129 ft 267 kts 33°
2026-05-05 05:19 53.49508 -6.44215 6812 ft 278 kts 64°
2026-05-05 05:19 53.49817 -6.41002 7512 ft 284 kts 91°
2026-05-05 05:19 53.49761 -6.37673 8229 ft 287 kts 88°
2026-05-05 05:19 53.49795 -6.35444 8680 ft 290 kts 86°
2026-05-05 05:20 53.49910 -6.32039 9048 ft 293 kts 85°
2026-05-05 05:20 53.49981 -6.28593 9128 ft 298 kts 90°
2026-05-05 05:20 53.49907 -6.25098 9840 ft 299 kts 92°
2026-05-05 05:20 53.49806 -6.21605 10499 ft 304 kts 92°
2026-05-05 05:21 53.49703 -6.17928 10666 ft 326 kts 92°
2026-05-05 05:21 53.49601 -6.14004 10906 ft 344 kts 91°
2026-05-05 05:21 53.49501 -6.09939 11435 ft 352 kts 91°
2026-05-05 05:21 53.49403 -6.05821 12137 ft 354 kts 91°
2026-05-05 05:22 53.49270 -6.01671 12812 ft 358 kts 94°
2026-05-05 05:22 53.49030 -5.97460 13399 ft 365 kts 96°
2026-05-05 05:22 53.48748 -5.93196 14080 ft 369 kts 96°
2026-05-05 05:22 53.48458 -5.88903 14743 ft 372 kts 96°
2026-05-05 05:23 53.48169 -5.84566 15392 ft 376 kts 96°
2026-05-05 05:23 53.47883 -5.80196 16083 ft 378 kts 96°
2026-05-05 05:23 53.47600 -5.75795 16745 ft 382 kts 95°
2026-05-05 05:23 53.47315 -5.71331 17329 ft 387 kts 95°
2026-05-05 05:24 53.47028 -5.66828 18011 ft 389 kts 95°
2026-05-05 05:24 53.46739 -5.62302 18630 ft 392 kts 95°
2026-05-05 05:24 53.46445 -5.57723 19138 ft 397 kts 95°
2026-05-05 05:24 53.46147 -5.53112 19726 ft 398 kts 96°
2026-05-05 05:25 53.45846 -5.48484 20309 ft 401 kts 96°
2026-05-05 05:25 53.45541 -5.43809 20771 ft 406 kts 96°
2026-05-05 05:25 53.45230 -5.39091 21368 ft 407 kts 96°
2026-05-05 05:25 53.44917 -5.34368 21941 ft 409 kts 96°
2026-05-05 05:26 53.44600 -5.29595 22340 ft 415 kts 96°
2026-05-05 05:26 53.44278 -5.24776 22950 ft 415 kts 96°
2026-05-05 05:26 53.43953 -5.19961 23534 ft 417 kts 96°
2026-05-05 05:26 53.43650 -5.15176 23953 ft 419 kts 95°
2026-05-05 05:27 53.43461 -5.10288 24371 ft 422 kts 92°
2026-05-05 05:27 53.43329 -5.05363 24771 ft 424 kts 92°
2026-05-05 05:27 53.43062 -4.95418 25595 ft 428 kts 92°
2026-05-05 05:28 53.42905 -4.90416 25973 ft 431 kts 93°
2026-05-05 05:28 53.42738 -4.85375 26334 ft 434 kts 93°
2026-05-05 05:28 53.42568 -4.80321 26778 ft 434 kts 93°
2026-05-05 05:28 53.42397 -4.75242 27072 ft 439 kts 93°
2026-05-05 05:29 53.42223 -4.70124 27454 ft 440 kts 93°
2026-05-05 05:29 53.42047 -4.64997 27850 ft 441 kts 93°
2026-05-05 05:29 53.41868 -4.59839 28179 ft 444 kts 93°
2026-05-05 05:29 53.41688 -4.54717 28869 ft 437 kts 93°
2026-05-05 05:30 53.41508 -4.49645 29399 ft 436 kts 93°
2026-05-05 05:30 53.41325 -4.44559 29711 ft 439 kts 93°
2026-05-05 05:30 53.41139 -4.39458 30179 ft 437 kts 93°
2026-05-05 05:30 53.40952 -4.34383 30596 ft 436 kts 93°
2026-05-05 05:31 53.40764 -4.29312 30938 ft 436 kts 93°
2026-05-05 05:31 53.40573 -4.24253 31338 ft 434 kts 93°
2026-05-05 05:31 53.40381 -4.19204 31683 ft 434 kts 93°
2026-05-05 05:31 53.40186 -4.14157 32045 ft 433 kts 93°
2026-05-05 05:32 53.39991 -4.09133 32479 ft 430 kts 93°
2026-05-05 05:32 53.39797 -4.04159 32952 ft 427 kts 93°
2026-05-05 05:32 53.39397 -3.94157 33055 ft 432 kts 93°
2026-05-05 05:33 53.38666 -3.84247 33054 ft 428 kts 106°
2026-05-05 05:33 53.36241 -3.75181 33064 ft 427 kts 117°
2026-05-05 05:34 53.33540 -3.66323 33060 ft 427 kts 116°
2026-05-05 05:34 53.30872 -3.57441 33064 ft 428 kts 116°
2026-05-05 05:35 53.28188 -3.48435 33220 ft 438 kts 116°
2026-05-05 05:35 53.26818 -3.43861 33349 ft 442 kts 117°
2026-05-05 05:35 53.25163 -3.39505 33441 ft 447 kts 128°
2026-05-05 05:36 53.23212 -3.35547 33702 ft 448 kts 130°
2026-05-05 05:36 53.21158 -3.31533 33896 ft 450 kts 130°
2026-05-05 05:36 53.19150 -3.27642 34262 ft 446 kts 130°
2026-05-05 05:36 53.17142 -3.23736 34646 ft 443 kts 130°
2026-05-05 05:37 53.15144 -3.19822 34828 ft 444 kts 129°
2026-05-05 05:37 53.13145 -3.15879 34955 ft 447 kts 129°
2026-05-05 05:37 53.11146 -3.11923 35197 ft 446 kts 129°
2026-05-05 05:37 53.09152 -3.07972 35466 ft 445 kts 129°
2026-05-05 05:38 53.07160 -3.04025 35623 ft 446 kts 129°
2026-05-05 05:38 53.05163 -3.00073 35875 ft 446 kts 130°
2026-05-05 05:38 53.03170 -2.96134 36053 ft 446 kts 130°
2026-05-05 05:38 53.01165 -2.92180 36213 ft 448 kts 130°
2026-05-05 05:39 52.99164 -2.88241 36480 ft 446 kts 130°
2026-05-05 05:39 52.97161 -2.84307 36673 ft 446 kts 130°
2026-05-05 05:39 52.95162 -2.80384 36940 ft 444 kts 130°
2026-05-05 05:39 52.93170 -2.76481 37038 ft 446 kts 130°
2026-05-05 05:40 52.89151 -2.68627 37042 ft 447 kts 130°
2026-05-05 05:40 52.85143 -2.60820 37044 ft 443 kts 130°
2026-05-05 05:41 52.81159 -2.53082 37049 ft 441 kts 130°
2026-05-05 05:41 52.77189 -2.45396 37046 ft 439 kts 130°
2026-05-05 05:42 52.73226 -2.37745 37036 ft 438 kts 130°
2026-05-05 05:42 52.69263 -2.30119 37039 ft 438 kts 130°
2026-05-05 05:43 52.65288 -2.22494 37041 ft 439 kts 130°
2026-05-05 05:43 52.61298 -2.14861 37036 ft 440 kts 130°
2026-05-05 05:44 52.57293 -2.07225 37032 ft 442 kts 130°
2026-05-05 05:44 52.53270 -1.99575 37037 ft 443 kts 130°
2026-05-05 05:45 52.49231 -1.91919 37033 ft 444 kts 131°
2026-05-05 05:45 52.45180 -1.84265 37017 ft 444 kts 131°
2026-05-05 05:46 52.41152 -1.76674 37020 ft 444 kts 131°
2026-05-05 05:46 52.37093 -1.69048 37021 ft 444 kts 131°
2026-05-05 05:47 52.32967 -1.61539 37016 ft 443 kts 134°
2026-05-05 05:47 52.28683 -1.54313 37023 ft 442 kts 134°
2026-05-05 05:48 52.24400 -1.47116 37012 ft 441 kts 135°
2026-05-05 05:48 52.20147 -1.39914 37022 ft 440 kts 134°
2026-05-05 05:49 52.15907 -1.32726 37021 ft 439 kts 134°
2026-05-05 05:49 52.11671 -1.25564 37021 ft 439 kts 135°
2026-05-05 05:50 52.07735 -1.18003 37010 ft 440 kts 121°
2026-05-05 05:50 52.04798 -1.09281 37016 ft 440 kts 119°
2026-05-05 05:51 52.01895 -1.00534 37009 ft 440 kts 119°
2026-05-05 05:51 51.98951 -0.91821 36998 ft 441 kts 120°
2026-05-05 05:52 51.95976 -0.83130 37000 ft 441 kts 120°
2026-05-05 05:52 51.92984 -0.74445 36996 ft 442 kts 120°
2026-05-05 05:53 51.89982 -0.65759 36996 ft 442 kts 120°
2026-05-05 05:53 51.86972 -0.57079 36995 ft 442 kts 120°
2026-05-05 05:54 51.83952 -0.48401 36996 ft 443 kts 120°
2026-05-05 05:54 51.80924 -0.39728 36994 ft 443 kts 121°
2026-05-05 05:55 51.77890 -0.31065 36993 ft 443 kts 121°
2026-05-05 05:55 51.74846 -0.22407 36994 ft 443 kts 121°
2026-05-05 05:56 51.71797 -0.13762 36995 ft 443 kts 121°
2026-05-05 05:56 51.68739 -0.05123 36994 ft 444 kts 121°
2026-05-05 05:57 51.65676 0.03501 36985 ft 444 kts 121°
2026-05-05 05:57 51.62605 0.12119 36995 ft 444 kts 121°
2026-05-05 05:58 51.59549 0.20666 36996 ft 444 kts 121°
2026-05-05 05:58 51.56479 0.29222 36992 ft 444 kts 121°
2026-05-05 05:59 51.53385 0.37817 36995 ft 444 kts 121°
2026-05-05 05:59 51.50282 0.46408 36993 ft 445 kts 121°
2026-05-05 06:00 51.47170 0.54995 36990 ft 445 kts 122°
2026-05-05 06:00 51.44049 0.63576 36998 ft 446 kts 122°
2026-05-05 06:01 51.40920 0.72155 36998 ft 446 kts 122°
2026-05-05 06:01 51.37779 0.80735 36992 ft 447 kts 122°
2026-05-05 06:02 51.34630 0.89310 36991 ft 447 kts 122°
2026-05-05 06:02 51.31469 0.97888 36965 ft 448 kts 123°
2026-05-05 06:03 51.28514 1.06650 36970 ft 450 kts 113°
2026-05-05 06:03 51.26826 1.16313 36980 ft 453 kts 106°
2026-05-05 06:04 51.25319 1.26080 36979 ft 453 kts 106°
2026-05-05 06:04 51.23818 1.35866 36974 ft 454 kts 104°
2026-05-05 06:05 51.22521 1.45737 36970 ft 455 kts 104°
2026-05-05 06:05 51.21247 1.55626 36969 ft 455 kts 104°
2026-05-05 06:06 51.20161 1.63836 36977 ft 455 kts 104°
2026-05-05 06:06 51.18827 1.73705 36966 ft 456 kts 104°
2026-05-05 06:07 51.17478 1.83572 36969 ft 456 kts 105°
2026-05-05 06:07 51.15900 1.95034 36958 ft 456 kts 105°
2026-05-05 06:08 51.14755 2.03294 36961 ft 456 kts 105°
2026-05-05 06:08 51.13382 2.13145 36964 ft 456 kts 105°
2026-05-05 06:09 51.12000 2.22996 36966 ft 456 kts 105°
2026-05-05 06:09 51.10609 2.32848 36961 ft 456 kts 105°
2026-05-05 06:10 51.09210 2.42688 36962 ft 456 kts 106°
2026-05-05 06:10 51.07802 2.52528 36957 ft 456 kts 106°
2026-05-05 06:11 51.06385 2.62367 36960 ft 457 kts 106°
2026-05-05 06:11 51.04969 2.72138 36954 ft 457 kts 106°
2026-05-05 06:12 51.03536 2.81965 36943 ft 456 kts 106°
2026-05-05 06:12 51.02095 2.91780 36939 ft 456 kts 106°
2026-05-05 06:13 51.00647 3.01589 36945 ft 456 kts 106°
2026-05-05 06:13 50.99082 3.11331 36929 ft 453 kts 115°
2026-05-05 06:14 50.96194 3.20084 36950 ft 447 kts 123°
2026-05-05 06:14 50.93093 3.28625 36791 ft 446 kts 123°
2026-05-05 06:15 50.91562 3.32874 36479 ft 440 kts 123°
2026-05-05 06:15 50.90063 3.37058 36094 ft 434 kts 124°
2026-05-05 06:15 50.88584 3.41194 35747 ft 429 kts 124°
2026-05-05 06:15 50.87117 3.45293 35344 ft 426 kts 124°
2026-05-05 06:16 50.85662 3.49355 34970 ft 423 kts 124°
2026-05-05 06:16 50.84216 3.53387 34584 ft 420 kts 125°
2026-05-05 06:16 50.82779 3.57386 34203 ft 417 kts 125°
2026-05-05 06:16 50.81353 3.61350 33807 ft 413 kts 126°
2026-05-05 06:17 50.79935 3.65286 33374 ft 410 kts 126°
2026-05-05 06:17 50.78529 3.69179 32986 ft 406 kts 126°
2026-05-05 06:17 50.77133 3.73037 32601 ft 403 kts 126°
2026-05-05 06:17 50.75750 3.76856 32215 ft 399 kts 126°
2026-05-05 06:18 50.74379 3.80636 31852 ft 395 kts 126°
2026-05-05 06:18 50.73017 3.84384 31482 ft 392 kts 126°
2026-05-05 06:18 50.71662 3.88105 31128 ft 389 kts 125°
2026-05-05 06:18 50.70318 3.91793 30769 ft 387 kts 125°
2026-05-05 06:19 50.68999 3.95407 30417 ft 384 kts 125°
2026-05-05 06:19 50.67651 3.99094 30067 ft 382 kts 125°
2026-05-05 06:19 50.66346 4.02661 29677 ft 379 kts 125°
2026-05-05 06:19 50.65032 4.06245 29287 ft 376 kts 124°
2026-05-05 06:20 50.63729 4.09798 28923 ft 373 kts 124°
2026-05-05 06:20 50.62436 4.13319 28551 ft 369 kts 124°
2026-05-05 06:20 50.61156 4.16798 28198 ft 366 kts 124°
2026-05-05 06:20 50.59884 4.20251 27832 ft 363 kts 124°
2026-05-05 06:21 50.58620 4.23676 27482 ft 360 kts 124°
2026-05-05 06:21 50.57366 4.27069 27139 ft 358 kts 124°
2026-05-05 06:21 50.56120 4.30438 26790 ft 355 kts 123°
2026-05-05 06:21 50.54881 4.33782 26447 ft 353 kts 123°
2026-05-05 06:22 50.53649 4.37104 26105 ft 350 kts 123°
2026-05-05 06:22 50.52424 4.40401 25765 ft 348 kts 123°
2026-05-05 06:22 50.51205 4.43679 25430 ft 346 kts 123°
2026-05-05 06:22 50.49993 4.46934 25094 ft 345 kts 123°
2026-05-05 06:23 50.48786 4.50173 24764 ft 343 kts 122°
2026-05-05 06:23 50.47584 4.53394 24429 ft 341 kts 122°
2026-05-05 06:23 50.46386 4.56599 24099 ft 339 kts 122°
2026-05-05 06:23 50.45194 4.59786 23774 ft 338 kts 122°
2026-05-05 06:24 50.44004 4.62961 23426 ft 337 kts 122°
2026-05-05 06:24 50.42838 4.66144 23016 ft 336 kts 121°
2026-05-05 06:24 50.41692 4.69332 22655 ft 334 kts 120°
2026-05-05 06:24 50.40560 4.72498 22312 ft 332 kts 121°
2026-05-05 06:25 50.39434 4.75644 21981 ft 329 kts 120°
2026-05-05 06:25 50.38317 4.78757 21666 ft 326 kts 120°
2026-05-05 06:25 50.37207 4.81842 21327 ft 324 kts 121°
2026-05-05 06:25 50.36102 4.84907 21029 ft 322 kts 120°
2026-05-05 06:26 50.35004 4.87946 20724 ft 319 kts 120°
2026-05-05 06:26 50.33915 4.90957 20404 ft 317 kts 120°
2026-05-05 06:26 50.32845 4.93911 20097 ft 315 kts 120°
2026-05-05 06:26 50.31767 4.96883 19791 ft 313 kts 120°
2026-05-05 06:27 50.30694 4.99835 19478 ft 311 kts 120°
2026-05-05 06:27 50.28564 5.05688 18870 ft 308 kts 120°
2026-05-05 06:27 50.27507 5.08590 18562 ft 307 kts 120°
2026-05-05 06:28 50.26451 5.11483 18265 ft 306 kts 120°
2026-05-05 06:28 50.25397 5.14366 17936 ft 305 kts 120°
2026-05-05 06:28 50.24349 5.17233 17603 ft 303 kts 120°
2026-05-05 06:28 50.23305 5.20084 17284 ft 301 kts 120°
2026-05-05 06:29 50.22267 5.22915 16981 ft 300 kts 120°
2026-05-05 06:29 50.21234 5.25731 16680 ft 298 kts 120°
2026-05-05 06:29 50.20208 5.28523 16378 ft 296 kts 120°
2026-05-05 06:29 50.19187 5.31298 16086 ft 294 kts 120°
2026-05-05 06:30 50.18173 5.34054 15804 ft 292 kts 120°
2026-05-05 06:30 50.17163 5.36793 15502 ft 290 kts 120°
2026-05-05 06:30 50.16158 5.39517 15221 ft 289 kts 120°
2026-05-05 06:30 50.15158 5.42226 14933 ft 288 kts 120°
2026-05-05 06:31 50.14161 5.44921 14637 ft 286 kts 120°
2026-05-05 06:31 50.13168 5.47604 14364 ft 285 kts 120°
2026-05-05 06:31 50.12179 5.50274 14078 ft 284 kts 121°
2026-05-05 06:31 50.11186 5.52949 13797 ft 287 kts 121°
2026-05-05 06:32 50.10179 5.55662 13482 ft 292 kts 121°
2026-05-05 06:32 50.09152 5.58424 13156 ft 297 kts 121°
2026-05-05 06:32 50.08109 5.61228 12839 ft 300 kts 121°
2026-05-05 06:32 50.07068 5.64025 12514 ft 298 kts 121°
2026-05-05 06:33 50.06031 5.66807 12215 ft 296 kts 121°
2026-05-05 06:33 50.04999 5.69572 11902 ft 294 kts 121°
2026-05-05 06:33 50.03988 5.72278 11607 ft 292 kts 121°
2026-05-05 06:33 50.02955 5.75040 11308 ft 291 kts 121°
2026-05-05 06:34 50.01954 5.77715 11014 ft 289 kts 121°
2026-05-05 06:34 50.00943 5.80412 10722 ft 288 kts 121°
2026-05-05 06:34 49.99937 5.83093 10415 ft 287 kts 121°
2026-05-05 06:34 49.98933 5.85766 10136 ft 286 kts 121°
2026-05-05 06:35 49.97939 5.88411 9971 ft 280 kts 121°
2026-05-05 06:35 49.96964 5.91001 9730 ft 277 kts 121°
2026-05-05 06:35 49.95992 5.93581 9432 ft 276 kts 122°
2026-05-05 06:35 49.95026 5.96142 9147 ft 274 kts 122°
2026-05-05 06:36 49.94064 5.98691 8861 ft 273 kts 122°
2026-05-05 06:36 49.93106 6.01226 8579 ft 271 kts 122°
2026-05-05 06:36 49.92154 6.03746 8305 ft 270 kts 122°
2026-05-05 06:36 49.91205 6.06252 8032 ft 269 kts 122°
2026-05-05 06:37 49.90260 6.08744 7753 ft 268 kts 122°
2026-05-05 06:37 49.89317 6.11232 7479 ft 267 kts 121°
2026-05-05 06:37 49.88378 6.13706 7207 ft 266 kts 121°
2026-05-05 06:37 49.87442 6.16169 6950 ft 265 kts 121°
2026-05-05 06:38 49.86509 6.18622 6670 ft 264 kts 121°
2026-05-05 06:38 49.85578 6.21069 6398 ft 263 kts 121°
2026-05-05 06:38 49.84651 6.23503 6121 ft 262 kts 121°
2026-05-05 06:38 49.83726 6.25929 5835 ft 261 kts 121°
2026-05-05 06:39 49.82806 6.28341 5566 ft 260 kts 121°
2026-05-05 06:39 49.81889 6.30741 5314 ft 258 kts 121°
2026-05-05 06:39 49.80991 6.33091 5232 ft 249 kts 121°
2026-05-05 06:39 49.80128 6.35343 5178 ft 238 kts 122°
2026-05-05 06:40 49.79296 6.37513 5086 ft 230 kts 122°
2026-05-05 06:40 49.78281 6.39343 4897 ft 223 kts 149°
2026-05-05 06:40 49.76939 6.40480 4778 ft 220 kts 152°
2026-05-05 06:40 49.75581 6.41660 4566 ft 228 kts 151°
2026-05-05 06:41 49.74191 6.42878 4267 ft 231 kts 151°
2026-05-05 06:41 49.72719 6.43842 3915 ft 232 kts 174°
2026-05-05 06:41 49.71175 6.43306 3597 ft 233 kts 213°
2026-05-05 06:41 49.70117 6.41441 3318 ft 232 kts 237°
2026-05-05 06:42 49.69352 6.39285 3070 ft 224 kts 240°
2026-05-05 06:42 49.68627 6.37256 2998 ft 206 kts 238°
2026-05-05 06:42 49.67951 6.35430 2964 ft 186 kts 238°
2026-05-05 06:42 49.67330 6.33760 2759 ft 173 kts 238°
2026-05-05 06:43 49.66754 6.32217 2518 ft 163 kts 238°
2026-05-05 06:43 49.66193 6.30708 2365 ft 160 kts 238°
2026-05-05 06:43 49.65637 6.29210 2110 ft 161 kts 239°
2026-05-05 06:43 49.65085 6.27726 1874 ft 158 kts 239°
2026-05-05 06:44 49.64540 6.26257 1654 ft 158 kts 239°
2026-05-05 06:44 49.64001 6.24791 1448 ft 157 kts 239°
2026-05-05 06:44 49.63457 6.23340 1239 ft 156 kts 239°
2026-05-05 06:44 49.62962 6.22008 1213 ft 120 kts 240°
2026-05-05 06:45 49.62656 6.21186 1232 ft 57 kts 240°
2026-05-05 06:45 49.62521 6.20821 1233 ft 35 kts 240°
2026-05-05 06:45 49.62472 6.20612 1233 ft 12 kts 313°
2026-05-05 06:45 49.62551 6.20628 1235 ft 12 kts 21°
2026-05-05 06:46 49.62627 6.20672 1237 ft 11 kts 20°
2026-05-05 06:46 49.62701 6.20714 1236 ft 11 kts 19°
2026-05-05 06:46 49.62773 6.20755 1236 ft 11 kts 20°
2026-05-05 06:46 49.62824 6.20833 1242 ft 11 kts 64°
2026-05-05 06:47 49.62862 6.20951 1233 ft 14 kts 64°
2026-05-05 06:47 49.62902 6.21082 1232 ft 13 kts 65°
2026-05-05 06:47 49.62941 6.21208 1232 ft 13 kts 65°
2026-05-05 06:47 49.62980 6.21335 1229 ft 14 kts 64°
2026-05-05 06:48 49.63024 6.21474 1226 ft 14 kts 64°
2026-05-05 06:48 49.63067 6.21609 1225 ft 14 kts 65°
2026-05-05 06:48 49.63106 6.21739 1224 ft 12 kts 65°
2026-05-05 06:48 49.63162 6.21756 1227 ft 9 kts 332°
2026-05-05 06:49 49.63214 6.21708 1229 ft 6 kts 315°
2026-05-05 06:49 49.63209 6.21676 1229 ft 3 kts 238°
2026-05-05 06:49 49.63199 6.21648 1229 ft 3 kts 239°
2026-05-05 06:49 49.63195 6.21639 1229 ft 0 kts 239°